User: anonymous   Login
Location: New Plymouth
(39.0670°S, 174.0830°E)
Time: 12:53:45
(UTC+13:00)
Language:

Cosmos 1151 Rocket - Orbit

View from above orbital plane
View from above orbital plane
View from above satellite
View from above satellite

Ground track
Ground track

The orbit data is extracted from the following two-line orbital elements,

1 11672U 80005B   19077.72576860  .00000067  00000-0  46194-5 0  9997
2 11672  82.5180 195.6940 0016592 359.3865   0.7329 14.87952620118497
Epoch (UTC): 18 March 2019 17:25:06
Eccentricity: 0.0016592
inclination: 82.5180°
perigee height: 593 km
apogee height: 616 km
right ascension of ascending node: 195.6940°
argument of perigee: 359.3865°
revolutions per day: 14.87952620
mean anomaly at epoch: 0.7329°
orbit number at epoch: 11849

The dashed part of the orbit path shows where the satellite is in the earth's shadow,  

DLR